Simultaneous Nadir Overpasses (SNOs) Predictions

Prediction of SNOs between NOAA-19 and NPP Satellite Orbit:

Table of predicted SNOs for the next 14.0 days since TLE Epoch: 10/1/2022
Index Date (NOAA-19) Time (NOAA-19) Lat,Lon (NOAA-19) SZA (NOAA-19 ) Date (NPP) Time (NPP) Lat,Lon (NPP) SZA (NPP ) Distance(km) Time Diff (sec)
1 10/05/2022 17:21:24 75.91, -99.99 81.35 10/05/2022 17:22:30 75.99, -97.01 81.22 81.22 66
2 10/05/2022 18:12:11 -76.35, 68.93 98.32 10/05/2022 18:13:23 -76.38, 68.92 98.31 3.93 72
3 10/05/2022 19:03:13 76.38,-123.72 81.72 10/05/2022 19:04:08 76.36,-123.68 81.68 2.35 55
4 10/05/2022 19:54:10 -76.38, 43.56 98.27 10/05/2022 19:54:53 -76.39, 43.53 98.27 1.23 43
5 10/05/2022 20:45:12 76.41,-149.09 81.77 10/05/2022 20:45:39 76.41,-149.23 81.77 3.74 27
6 10/05/2022 21:36:09 -76.41, 18.18 98.22 10/05/2022 21:36:23 -76.39, 18.14 98.24 2.36 14
7 10/05/2022 22:27:12 76.40,-174.63 81.78 10/05/2022 22:27:09 76.41,-174.62 81.80 1.71 3
8 10/05/2022 23:18:09 -76.40, -7.36 98.21 10/05/2022 23:17:53 -76.40, -7.25 98.21 2.87 16
9 10/06/2022 00:09:10 76.43, 160.00 81.83 10/06/2022 00:08:38 76.42, 159.99 81.83 1.34 32
10 10/06/2022 01:00:07 -76.43, -32.73 98.16 10/06/2022 00:59:23 -76.45, -32.81 98.13 2.63 44
11 10/06/2022 01:51:10 76.42, 134.45 81.85 10/06/2022 01:50:08 76.42, 134.60 81.86 3.81 62
12 10/06/2022 02:42:06 -76.46, -58.11 98.11 10/06/2022 02:40:53 -76.45, -58.20 98.09 2.55 73



Historial Predications of SNOs between NOAA-19 and NPP
